Location: Staunton
(38.1490°N, 79.0720°W)
Time: 17:39:36
(UTC-04:00)

ISS - Visible Passes

Search period start: 18 October 2019 00:00
Search period end: 28 October 2019 00:00
Orbit: 411 x 421 km, 51.6° (Epoch: 19 October)

Date Brightness Start Highest point End Pass type
(mag) Time Alt. Az. Time Alt. Az. Time Alt. Az.
22 Oct -1.6 06:59:42 10° SSW 07:02:40 29° SE 07:05:38 10° ENE visible
23 Oct -0.8 06:12:03 10° S 06:14:15 16° SE 06:16:27 10° E visible
24 Oct -3.8 06:58:44 10° SW 07:02:06 86° NW 07:05:28 10° NE visible
25 Oct -3.0 06:11:26 19° SSW 06:13:33 50° SE 06:16:49 10° ENE visible
26 Oct -1.6 05:25:39 25° ESE 05:25:39 25° ESE 05:27:56 10° ENE visible
26 Oct -2.8 06:58:39 10° W 07:01:42 31° NNW 07:04:46 10° NNE visible
27 Oct -3.6 06:12:34 47° WNW 06:13:00 52° NW 06:16:19 10° NE visible
